QPF
0.00 0.01 0.01 0.00 0.01 0.03 0.03 0.02 0.04 0.05 0.06 0.09 0.11 0.13 0.09 0.06 0.03 0.02 0.02 0.01 0.03 0.04 0.05 0.04 0.06 0.06 0.07 0.07 0.08 0.10 0.09 0.08 0.05 0.06 0.07 0.06 0.06 0.05 0.05 0.04 0.03 0.02 0.02
0.00 0.00 0.01 0.02 0.01 0.01 0.02 0.03 0.04 0.05 0.05 0.07 0.08 0.08 0.07 0.06 0.05 0.03 0.02 0.01 0.02 0.03 0.04 0.05 0.05 0.06 0.07 0.09 0.09 0.09 0.09 0.08 0.06 0.07 0.09 0.09 0.09 0.08 0.05 0.03 0.02 0.02 0.02
0.01 0.01 0.01 0.01 0.01 0.01 0.01 0.03 0.04 0.05 0.04 0.04 0.06 0.08 0.08 0.07 0.06 0.05 0.03 0.02 0.02 0.02 0.02 0.04 0.04 0.06 0.07 0.09 0.09 0.09 0.08 0.08 0.08 0.07 0.09 0.10 0.10 0.07 0.05 0.03 0.03 0.02 0.03
0.01 0.02 0.04 0.03 0.01 0.01 0.02 0.02 0.03 0.04 0.04 0.04 0.05 0.07 0.07 0.07 0.06 0.05 0.05 0.03 0.02 0.02 0.03 0.05 0.05 0.05 0.07 0.08 0.06 0.07 0.06 0.09 0.09 0.09 0.08 0.07 0.08 0.09 0.09 0.07 0.05 0.04 0.03
0.00 0.02 0.03 0.04 0.02 0.01 0.01 0.01 0.02 0.05 0.06 0.05 0.04 0.05 0.06 0.05 0.04 0.04 0.05 0.04 0.03 0.03 0.03 0.04 0.05 0.04 0.05 0.06 0.05 0.04 0.04 0.07 0.08 0.08 0.08 0.07 0.08 0.09 0.09 0.10 0.07 0.06 0.05
0.00 0.01 0.01 0.01 0.01 0.02 0.02 0.02 0.02 0.03 0.05 0.05 0.04 0.04 0.05 0.05 0.05 0.07 0.07 0.06 0.04 0.05 0.04 0.05 0.04 0.04 0.05 0.06 0.06 0.05 0.05 0.05 0.06 0.07 0.08 0.09 0.08 0.09 0.08 0.08 0.08 0.07 0.06
0.00 0.00 0.00 0.00 0.00 0.01 0.02 0.03 0.03 0.03 0.03 0.03 0.03 0.03 0.04 0.05 0.07 0.07 0.07 0.07 0.04 0.04 0.05 0.05 0.05 0.06 0.06 0.05 0.06 0.06 0.06 0.06 0.07 0.07 0.07 0.08 0.08 0.08 0.08 0.08 0.06 0.07 0.05
0.00 0.00 0.00 0.00 0.00 0.00 0.01 0.02 0.03 0.04 0.03 0.02 0.02 0.02 0.02 0.04 0.06 0.08 0.06 0.06 0.06 0.04 0.05 0.05 0.05 0.05 0.06 0.06 0.07 0.07 0.06 0.06 0.07 0.08 0.10 0.10 0.08 0.07 0.07 0.07 0.06 0.05 0.04
0.00 0.00 0.00 0.00 0.00 0.00 0.01 0.01 0.01 0.02 0.02 0.02 0.03 0.02 0.03 0.04 0.05 0.06 0.05 0.05 0.05 0.05 0.06 0.08 0.06 0.05 0.06 0.06 0.07 0.06 0.07 0.09 0.10 0.10 0.12 0.12 0.09 0.07 0.05 0.06 0.07 0.07 0.06
0.00 0.00 0.01 0.01 0.00 0.00 0.01 0.01 0.01 0.01 0.01 0.01 0.02 0.03 0.04 0.05 0.06 0.05 0.05 0.06 0.06 0.05 0.05 0.09 0.09 0.08 0.07 0.06 0.06 0.05 0.06 0.08 0.08 0.10 0.14 0.11 0.06 0.05 0.05 0.06 0.07 0.07 0.07
0.00 0.01 0.01 0.00 0.00 0.01 0.00 0.01 0.01 0.01 0.01 0.01 0.02 0.03 0.04 0.04 0.04 0.04 0.03 0.04 0.04 0.04 0.05 0.05 0.06 0.06 0.06 0.08 0.09 0.08 0.07 0.07 0.08 0.07 0.08 0.07 0.07 0.07 0.06 0.06 0.06 0.05 0.06
0.01 0.02 0.01 0.01 0.01 0.01 0.01 0.01 0.01 0.01 0.01 0.01 0.01 0.02 0.02 0.02 0.03 0.03 0.02 0.04 0.04 0.04 0.05 0.04 0.04 0.04 0.06 0.06 0.07 0.07 0.08 0.07 0.08 0.09 0.09 0.07 0.07 0.08 0.07 0.06 0.05 0.04 0.04
0.01 0.02 0.02 0.02 0.02 0.03 0.03 0.03 0.02 0.01 0.01 0.01 0.02 0.02 0.03 0.03 0.03 0.03 0.03 0.03 0.04 0.04 0.03 0.03 0.03 0.03 0.03 0.04 0.06 0.06 0.05 0.04 0.06 0.08 0.08 0.07 0.07 0.06 0.05 0.04 0.04 0.03 0.03
0.01 0.01 0.02 0.03 0.02 0.03 0.04 0.03 0.03 0.02 0.02 0.02 0.02 0.03 0.04 0.04 0.04 0.05 0.05 0.05 0.05 0.05 0.06 0.05 0.05 0.04 0.03 0.03 0.04 0.05 0.05 0.04 0.04 0.05 0.06 0.06 0.05 0.05 0.04 0.04 0.04 0.03 0.04
0.01 0.02 0.02 0.02 0.02 0.02 0.02 0.02 0.02 0.02 0.02 0.03 0.04 0.03 0.04 0.05 0.05 0.06 0.07 0.07 0.06 0.05 0.05 0.05 0.04 0.04 0.03 0.03 0.03 0.05 0.05 0.06 0.06 0.07 0.07 0.07 0.08 0.08 0.06 0.04 0.04 0.04 0.04
0.01 0.02 0.01 0.01 0.01 0.01 0.01 0.01 0.02 0.02 0.02 0.02 0.02 0.02 0.03 0.04 0.05 0.06 0.05 0.05 0.05 0.04 0.04 0.04 0.03 0.02 0.02 0.04 0.04 0.03 0.03 0.05 0.07 0.09 0.09 0.08 0.09 0.10 0.07 0.05 0.04 0.03 0.03
0.02 0.01 0.01 0.01 0.01 0.01 0.01 0.01 0.02 0.02 0.02 0.03 0.02 0.02 0.02 0.03 0.04 0.04 0.04 0.05 0.04 0.04 0.03 0.03 0.03 0.03 0.05 0.06 0.05 0.03 0.02 0.04 0.06 0.08 0.09 0.07 0.06 0.07 0.07 0.06 0.05 0.03 0.02
0.01 0.01 0.01 0.01 0.01 0.01 0.02 0.02 0.03 0.03 0.03 0.03 0.02 0.02 0.02 0.03 0.03 0.03 0.04 0.05 0.05 0.04 0.04 0.04 0.04 0.04 0.05 0.06 0.03 0.02 0.02 0.04 0.05 0.05 0.06 0.07 0.07 0.07 0.08 0.07 0.06 0.04 0.03
0.02 0.01 0.01 0.02 0.01 0.01 0.02 0.03 0.03 0.04 0.03 0.03 0.02 0.01 0.02 0.02 0.03 0.05 0.06 0.05 0.05 0.04 0.04 0.04 0.05 0.06 0.06 0.04 0.02 0.01 0.01 0.03 0.04 0.04 0.04 0.04 0.05 0.05 0.06 0.07 0.07 0.05 0.04
0.03 0.03 0.03 0.03 0.02 0.01 0.01 0.02 0.02 0.02 0.02 0.02 0.02 0.02 0.02 0.04 0.05 0.07 0.06 0.06 0.06 0.05 0.04 0.04 0.04 0.04 0.04 0.03 0.01 0.01 0.02 0.03 0.04 0.05 0.04 0.03 0.03 0.03 0.04 0.06 0.08 0.08 0.07
0.02 0.02 0.02 0.02 0.02 0.01 0.01 0.01 0.01 0.01 0.01 0.02 0.03 0.04 0.05 0.05 0.04 0.06 0.06 0.07 0.06 0.06 0.05 0.04 0.04 0.03 0.03 0.02 0.01 0.01 0.01 0.02 0.03 0.04 0.05 0.03 0.01 0.01 0.02 0.03 0.05 0.07 0.07
0.02 0.01 0.01 0.01 0.01 0.01 0.01 0.01 0.02 0.03 0.04 0.04 0.05 0.06 0.06 0.04 0.05 0.06 0.06 0.07 0.08 0.07 0.07 0.05 0.04 0.03 0.02 0.01 0.01 0.00 0.00 0.01 0.04 0.05 0.03 0.02 0.02 0.01 0.01 0.01 0.02 0.04 0.05
0.03 0.01 0.01 0.01 0.01 0.01 0.02 0.02 0.03 0.04 0.04 0.04 0.05 0.05 0.06 0.06 0.06 0.05 0.05 0.05 0.05 0.06 0.06 0.05 0.03 0.03 0.02 0.02 0.01 0.00 0.00 0.00 0.02 0.03 0.02 0.01 0.02 0.02 0.02 0.02 0.02 0.02 0.04
0.02 0.01 0.01 0.01 0.01 0.01 0.02 0.03 0.03 0.04 0.05 0.04 0.04 0.04 0.05 0.05 0.05 0.05 0.05 0.05 0.05 0.05 0.05 0.05 0.04 0.04 0.03 0.03 0.02 0.01 0.01 0.00 0.01 0.01 0.01 0.01 0.02 0.02 0.02 0.03 0.03 0.04 0.06
0.02 0.02 0.02 0.04 0.04 0.02 0.02 0.02 0.03 0.04 0.04 0.04 0.03 0.03 0.04 0.04 0.05 0.05 0.05 0.05 0.04 0.04 0.05 0.05 0.05 0.06 0.05 0.04 0.03 0.02 0.02 0.02 0.01 0.02 0.03 0.03 0.03 0.03 0.03 0.04 0.05 0.06 0.08
0.02 0.02 0.03 0.03 0.03 0.03 0.02 0.03 0.03 0.04 0.04 0.03 0.03 0.02 0.03 0.04 0.03 0.03 0.04 0.04 0.04 0.05 0.05 0.05 0.05 0.04 0.04 0.04 0.04 0.03 0.03 0.03 0.02 0.03 0.04 0.05 0.04 0.03 0.04 0.03 0.04 0.05 0.06
MSLP
1009.51 1009.95 1010.35 1010.73 1011.12 1011.53 1011.97 1012.46 1012.97 1013.48 1013.96 1014.38 1014.70 1014.90 1014.99 1014.97 1014.86 1014.68 1014.48 1014.28 1014.09 1013.92 1013.78 1013.67 1013.59 1013.52 1013.46 1013.42 1013.37 1013.33 1013.28 1013.20 1013.09 1012.93 1012.72 1012.45 1012.14 1011.79 1011.43 1011.09 1010.79 1010.56 1010.42
1009.24 1009.77 1010.23 1010.65 1011.03 1011.41 1011.82 1012.25 1012.73 1013.21 1013.68 1014.10 1014.43 1014.65 1014.74 1014.70 1014.57 1014.36 1014.14 1013.92 1013.73 1013.59 1013.50 1013.45 1013.44 1013.44 1013.45 1013.45 1013.45 1013.44 1013.42 1013.38 1013.32 1013.22 1013.07 1012.86 1012.57 1012.22 1011.82 1011.39 1010.96 1010.56 1010.21
1008.75 1009.39 1009.95 1010.44 1010.87 1011.26 1011.64 1012.03 1012.45 1012.90 1013.33 1013.73 1014.05 1014.26 1014.34 1014.30 1014.16 1013.96 1013.73 1013.53 1013.37 1013.28 1013.25 1013.27 1013.33 1013.39 1013.45 1013.50 1013.53 1013.54 1013.54 1013.53 1013.51 1013.46 1013.38 1013.23 1013.00 1012.67 1012.26 1011.77 1011.23 1010.68 1010.15
1008.00 1008.77 1009.46 1010.05 1010.55 1010.97 1011.35 1011.72 1012.09 1012.48 1012.87 1013.23 1013.53 1013.73 1013.81 1013.78 1013.66 1013.49 1013.30 1013.13 1013.03 1013.00 1013.04 1013.13 1013.25 1013.37 1013.47 1013.54 1013.57 1013.59 1013.59 1013.59 1013.60 1013.60 1013.57 1013.49 1013.33 1013.06 1012.66 1012.15 1011.55 1010.89 1010.22
1007.02 1007.90 1008.72 1009.44 1010.03 1010.51 1010.91 1011.26 1011.60 1011.95 1012.29 1012.61 1012.88 1013.08 1013.18 1013.18 1013.10 1012.97 1012.84 1012.74 1012.70 1012.74 1012.84 1013.00 1013.17 1013.33 1013.45 1013.52 1013.55 1013.55 1013.54 1013.54 1013.55 1013.58 1013.61 1013.59 1013.50 1013.30 1012.96 1012.48 1011.87 1011.16 1010.40
1005.85 1006.82 1007.76 1008.59 1009.28 1009.84 1010.28 1010.64 1010.96 1011.27 1011.58 1011.88 1012.14 1012.35 1012.48 1012.52 1012.50 1012.44 1012.37 1012.34 1012.36 1012.46 1012.61 1012.81 1013.01 1013.19 1013.33 1013.40 1013.41 1013.39 1013.35 1013.33 1013.34 1013.39 1013.45 1013.49 1013.48 1013.36 1013.10 1012.69 1012.12 1011.42 1010.63
1004.61 1005.63 1006.64 1007.56 1008.34 1008.97 1009.46 1009.84 1010.17 1010.48 1010.78 1011.07 1011.35 1011.58 1011.75 1011.86 1011.89 1011.90 1011.89 1011.91 1011.97 1012.10 1012.29 1012.51 1012.73 1012.92 1013.05 1013.11 1013.11 1013.07 1013.01 1012.97 1012.97 1013.01 1013.09 1013.18 1013.24 1013.21 1013.05 1012.73 1012.25 1011.62 1010.87
1003.44 1004.43 1005.47 1006.43 1007.27 1007.95 1008.49 1008.92 1009.27 1009.59 1009.91 1010.23 1010.54 1010.82 1011.04 1011.21 1011.30 1011.36 1011.39 1011.43 1011.52 1011.65 1011.84 1012.06 1012.28 1012.47 1012.61 1012.67 1012.67 1012.62 1012.55 1012.48 1012.46 1012.50 1012.59 1012.70 1012.81 1012.85 1012.79 1012.59 1012.22 1011.70 1011.04
1002.46 1003.38 1004.36 1005.31 1006.16 1006.86 1007.43 1007.89 1008.28 1008.65 1009.01 1009.38 1009.74 1010.08 1010.37 1010.59 1010.74 1010.82 1010.87 1010.92 1010.99 1011.10 1011.26 1011.46 1011.68 1011.87 1012.02 1012.11 1012.12 1012.08 1012.01 1011.94 1011.90 1011.92 1011.99 1012.11 1012.24 1012.34 1012.36 1012.27 1012.03 1011.63 1011.09
1001.80 1002.58 1003.45 1004.31 1005.10 1005.77 1006.33 1006.80 1007.23 1007.64 1008.06 1008.50 1008.94 1009.36 1009.72 1010.00 1010.18 1010.29 1010.34 1010.37 1010.40 1010.48 1010.60 1010.78 1010.99 1011.19 1011.37 1011.49 1011.55 1011.54 1011.49 1011.42 1011.36 1011.35 1011.38 1011.48 1011.60 1011.72 1011.80 1011.80 1011.68 1011.41 1011.02
1001.55 1002.12 1002.80 1003.50 1004.16 1004.73 1005.24 1005.68 1006.12 1006.56 1007.04 1007.56 1008.08 1008.58 1009.02 1009.36 1009.60 1009.73 1009.78 1009.78 1009.79 1009.82 1009.92 1010.08 1010.29 1010.52 1010.75 1010.93 1011.04 1011.09 1011.07 1011.00 1010.93 1010.87 1010.86 1010.90 1010.98 1011.09 1011.19 1011.24 1011.21 1011.07 1010.81
1001.70 1002.04 1002.47 1002.93 1003.38 1003.78 1004.16 1004.53 1004.93 1005.38 1005.90 1006.48 1007.09 1007.68 1008.21 1008.63 1008.92 1009.10 1009.16 1009.17 1009.16 1009.19 1009.27 1009.44 1009.67 1009.95 1010.23 1010.49 1010.68 1010.78 1010.80 1010.74 1010.64 1010.54 1010.46 1010.42 1010.44 1010.50 1010.59 1010.66 1010.69 1010.65 1010.50
1002.22 1002.28 1002.42 1002.59 1002.77 1002.93 1003.12 1003.35 1003.66 1004.08 1004.61 1005.23 1005.91 1006.58 1007.21 1007.72 1008.10 1008.35 1008.47 1008.52 1008.55 1008.60 1008.71 1008.91 1009.19 1009.53 1009.88 1010.21 1010.47 1010.63 1010.69 1010.64 1010.52 1010.36 1010.20 1010.08 1010.01 1010.00 1010.04 1010.11 1010.17 1010.19 1010.13
1003.00 1002.80 1002.63 1002.47 1002.32 1002.20 1002.13 1002.16 1002.33 1002.67 1003.16 1003.79 1004.51 1005.26 1005.98 1006.60 1007.10 1007.45 1007.68 1007.82 1007.93 1008.05 1008.23 1008.50 1008.85 1009.26 1009.69 1010.09 1010.41 1010.62 1010.70 1010.65 1010.50 1010.28 1010.05 1009.84 1009.69 1009.60 1009.59 1009.63 1009.68 1009.72 1009.72
1003.94 1003.49 1003.02 1002.53 1002.05 1001.61 1001.26 1001.04 1001.02 1001.22 1001.63 1002.23 1002.96 1003.77 1004.57 1005.31 1005.93 1006.42 1006.79 1007.07 1007.31 1007.55 1007.83 1008.20 1008.63 1009.11 1009.60 1010.06 1010.42 1010.66 1010.75 1010.70 1010.52 1010.26 1009.97 1009.68 1009.45 1009.30 1009.22 1009.21 1009.25 1009.28 1009.30
1004.93 1004.28 1003.55 1002.76 1001.97 1001.21 1000.57 1000.09 999.85 999.88 1000.16 1000.68 1001.39 1002.22 1003.09 1003.92 1004.68 1005.32 1005.85 1006.30 1006.69 1007.08 1007.49 1007.96 1008.48 1009.02 1009.56 1010.05 1010.43 1010.68 1010.77 1010.70 1010.50 1010.21 1009.88 1009.54 1009.26 1009.05 1008.92 1008.86 1008.86 1008.87 1008.87
1005.89 1005.10 1004.17 1003.15 1002.09 1001.07 1000.16 999.44 998.98 998.82 998.95 999.36 1000.01 1000.81 1001.71 1002.62 1003.48 1004.27 1004.96 1005.57 1006.13 1006.66 1007.20 1007.76 1008.35 1008.94 1009.50 1009.99 1010.37 1010.61 1010.69 1010.61 1010.39 1010.09 1009.73 1009.38 1009.07 1008.82 1008.66 1008.56 1008.50 1008.47 1008.42
1006.74 1005.89 1004.86 1003.70 1002.48 1001.27 1000.16 999.24 998.59 998.24 998.21 998.49 999.04 999.78 1000.66 1001.60 1002.53 1003.41 1004.23 1004.98 1005.67 1006.33 1006.97 1007.61 1008.24 1008.84 1009.40 1009.87 1010.22 1010.43 1010.48 1010.39 1010.17 1009.87 1009.52 1009.18 1008.86 1008.61 1008.42 1008.28 1008.18 1008.08 1007.97
1007.44 1006.62 1005.59 1004.41 1003.12 1001.83 1000.62 999.58 998.79 998.29 998.12 998.26 998.68 999.33 1000.14 1001.04 1001.99 1002.91 1003.80 1004.63 1005.41 1006.14 1006.84 1007.51 1008.15 1008.74 1009.26 1009.68 1009.99 1010.16 1010.19 1010.08 1009.87 1009.58 1009.26 1008.94 1008.65 1008.40 1008.19 1008.02 1007.87 1007.70 1007.51
1008.00 1007.28 1006.35 1005.23 1004.01 1002.74 1001.53 1000.46 999.60 999.01 998.72 998.73 999.02 999.54 1000.25 1001.07 1001.96 1002.86 1003.75 1004.59 1005.39 1006.14 1006.85 1007.51 1008.12 1008.67 1009.13 1009.50 1009.75 1009.87 1009.87 1009.76 1009.56 1009.30 1009.01 1008.72 1008.45 1008.20 1007.99 1007.79 1007.58 1007.36 1007.09
1008.41 1007.85 1007.08 1006.14 1005.06 1003.92 1002.81 1001.79 1000.94 1000.32 999.96 999.87 1000.03 1000.42 1000.99 1001.69 1002.47 1003.28 1004.10 1004.89 1005.65 1006.36 1007.03 1007.64 1008.19 1008.67 1009.07 1009.37 1009.56 1009.64 1009.61 1009.49 1009.30 1009.06 1008.80 1008.54 1008.28 1008.04 1007.82 1007.59 1007.34 1007.06 1006.73
1008.68 1008.32 1007.77 1007.04 1006.18 1005.24 1004.29 1003.41 1002.64 1002.05 1001.67 1001.51 1001.57 1001.82 1002.24 1002.79 1003.42 1004.10 1004.79 1005.48 1006.15 1006.78 1007.36 1007.90 1008.38 1008.78 1009.11 1009.34 1009.48 1009.52 1009.47 1009.34 1009.15 1008.92 1008.68 1008.42 1008.18 1007.93 1007.69 1007.44 1007.15 1006.83 1006.46
1008.84 1008.68 1008.35 1007.86 1007.24 1006.54 1005.80 1005.09 1004.46 1003.94 1003.58 1003.39 1003.37 1003.52 1003.79 1004.18 1004.65 1005.17 1005.71 1006.26 1006.80 1007.32 1007.81 1008.25 1008.64 1008.97 1009.23 1009.41 1009.51 1009.52 1009.45 1009.31 1009.12 1008.89 1008.64 1008.38 1008.13 1007.87 1007.60 1007.33 1007.02 1006.68 1006.31
1008.93 1008.93 1008.80 1008.53 1008.14 1007.67 1007.15 1006.63 1006.15 1005.74 1005.43 1005.24 1005.18 1005.23 1005.39 1005.63 1005.94 1006.30 1006.68 1007.09 1007.49 1007.89 1008.27 1008.62 1008.94 1009.21 1009.41 1009.55 1009.61 1009.60 1009.52 1009.36 1009.16 1008.92 1008.66 1008.39 1008.11 1007.83 1007.55 1007.26 1006.95 1006.63 1006.28
1008.98 1009.10 1009.11 1009.01 1008.81 1008.53 1008.20 1007.85 1007.51 1007.21 1006.97 1006.81 1006.72 1006.72 1006.78 1006.91 1007.08 1007.29 1007.54 1007.80 1008.08 1008.37 1008.65 1008.93 1009.18 1009.40 1009.57 1009.68 1009.73 1009.70 1009.61 1009.45 1009.24 1008.98 1008.70 1008.40 1008.10 1007.80 1007.51 1007.22 1006.94 1006.66 1006.38
1009.04 1009.22 1009.31 1009.32 1009.24 1009.09 1008.89 1008.67 1008.44 1008.23 1008.06 1007.93 1007.84 1007.80 1007.80 1007.84 1007.92 1008.02 1008.15 1008.31 1008.48 1008.68 1008.88 1009.09 1009.30 1009.48 1009.63 1009.73 1009.77 1009.74 1009.65 1009.48 1009.26 1008.99 1008.70 1008.38 1008.07 1007.76 1007.48 1007.22 1006.98 1006.77 1006.58
Thickness
5834 5834 5832 5830 5826 5822 5817 5813 5809 5806 5804 5800 5797 5794 5792 5793 5793 5793 5791 5789 5788 5786 5785 5784 5783 5782 5780 5778 5777 5775 5773 5773 5774 5770 5768 5771 5775 5774 5773 5773 5771 5770 5768
5831 5831 5830 5828 5824 5820 5816 5812 5809 5806 5804 5802 5800 5798 5796 5795 5794 5794 5792 5790 5788 5786 5786 5783 5782 5782 5779 5777 5775 5774 5771 5771 5772 5766 5761 5758 5761 5767 5773 5771 5769 5768 5768
5830 5827 5826 5825 5824 5819 5815 5812 5808 5806 5804 5803 5801 5798 5795 5793 5792 5790 5789 5790 5789 5787 5785 5783 5782 5780 5778 5775 5774 5772 5769 5766 5768 5768 5760 5751 5748 5756 5764 5767 5767 5766 5765
5834 5828 5823 5821 5822 5820 5816 5813 5809 5805 5803 5801 5798 5794 5790 5787 5789 5789 5789 5789 5788 5787 5785 5783 5781 5779 5777 5775 5773 5772 5769 5765 5762 5763 5764 5760 5757 5749 5749 5757 5762 5763 5761
5837 5831 5827 5823 5823 5821 5817 5813 5808 5804 5802 5800 5797 5794 5791 5790 5790 5790 5788 5787 5787 5786 5784 5782 5779 5777 5775 5773 5771 5770 5767 5765 5761 5759 5758 5757 5756 5753 5746 5744 5750 5754 5758
5838 5834 5830 5826 5823 5821 5817 5812 5806 5802 5800 5798 5796 5793 5790 5788 5786 5785 5783 5784 5784 5784 5783 5781 5778 5776 5773 5771 5769 5767 5765 5763 5760 5758 5756 5753 5750 5748 5746 5742 5743 5745 5750
5837 5832 5828 5824 5820 5818 5814 5810 5804 5799 5798 5797 5794 5793 5790 5788 5785 5782 5781 5780 5780 5779 5779 5778 5775 5773 5772 5770 5767 5764 5762 5760 5757 5755 5753 5752 5750 5750 5746 5742 5740 5740 5744
5836 5832 5828 5824 5820 5816 5813 5809 5802 5798 5796 5795 5793 5792 5790 5787 5785 5782 5780 5779 5778 5778 5777 5775 5773 5771 5769 5767 5764 5761 5759 5757 5754 5753 5750 5749 5747 5748 5746 5741 5737 5734 5736
5835 5832 5829 5824 5820 5816 5813 5809 5803 5798 5795 5794 5791 5789 5788 5785 5783 5781 5779 5777 5776 5776 5774 5771 5769 5767 5765 5763 5761 5756 5755 5753 5750 5748 5746 5745 5744 5744 5744 5742 5738 5730 5725
5834 5831 5828 5824 5821 5817 5813 5810 5804 5798 5795 5792 5790 5788 5785 5783 5781 5779 5775 5773 5772 5771 5769 5766 5763 5762 5760 5759 5756 5753 5751 5749 5746 5744 5742 5741 5740 5739 5739 5738 5736 5732 5726
5830 5827 5825 5823 5819 5816 5812 5807 5803 5798 5794 5791 5789 5785 5783 5781 5778 5775 5773 5770 5768 5766 5763 5761 5759 5757 5755 5753 5751 5749 5747 5744 5742 5741 5739 5737 5736 5734 5733 5732 5730 5728 5725
5828 5826 5822 5819 5814 5810 5807 5803 5800 5796 5793 5789 5786 5782 5780 5778 5774 5771 5769 5767 5764 5762 5759 5757 5755 5752 5751 5748 5746 5743 5742 5739 5737 5735 5734 5732 5732 5729 5727 5725 5724 5722 5721
5821 5819 5815 5811 5807 5804 5800 5798 5795 5793 5791 5787 5783 5778 5775 5772 5769 5766 5764 5762 5759 5756 5754 5751 5748 5746 5745 5743 5741 5738 5736 5734 5733 5731 5729 5727 5725 5722 5721 5719 5717 5716 5716
5812 5810 5806 5803 5801 5798 5795 5792 5790 5788 5786 5782 5777 5773 5770 5766 5764 5761 5759 5756 5753 5750 5747 5744 5742 5740 5738 5737 5734 5732 5731 5729 5727 5726 5724 5723 5719 5716 5714 5713 5710 5709 5708
5803 5800 5797 5794 5793 5791 5788 5786 5784 5782 5779 5775 5770 5767 5765 5762 5758 5755 5752 5749 5746 5744 5741 5738 5735 5734 5732 5730 5726 5725 5724 5722 5721 5720 5718 5717 5714 5711 5708 5707 5705 5703 5701
5795 5792 5790 5787 5785 5783 5781 5779 5777 5775 5773 5768 5764 5762 5758 5754 5751 5748 5745 5741 5738 5736 5733 5730 5728 5726 5725 5721 5719 5716 5716 5715 5713 5711 5711 5710 5708 5705 5703 5701 5700 5698 5696
5788 5785 5782 5780 5778 5777 5776 5772 5771 5769 5765 5761 5758 5755 5752 5748 5744 5742 5738 5734 5730 5728 5725 5723 5720 5717 5714 5712 5710 5708 5708 5707 5706 5704 5702 5702 5703 5700 5697 5696 5695 5693 5692
5781 5779 5777 5775 5774 5773 5770 5768 5766 5762 5758 5754 5751 5748 5745 5741 5738 5734 5730 5727 5724 5720 5717 5715 5713 5710 5707 5704 5702 5700 5700 5699 5699 5697 5696 5693 5692 5692 5689 5688 5687 5687 5687
5778 5775 5773 5769 5766 5764 5762 5759 5757 5754 5750 5746 5743 5741 5738 5734 5730 5726 5723 5721 5717 5714 5711 5709 5707 5704 5700 5697 5695 5692 5691 5690 5690 5691 5689 5686 5684 5683 5682 5680 5679 5679 5679
5772 5769 5766 5761 5756 5754 5753 5749 5747 5745 5742 5739 5737 5735 5732 5728 5724 5721 5717 5715 5711 5708 5705 5703 5701 5698 5693 5690 5687 5684 5683 5682 5681 5681 5680 5678 5676 5674 5672 5671 5670 5669 5671
5762 5760 5756 5752 5749 5747 5744 5739 5737 5735 5734 5733 5730 5727 5725 5722 5720 5716 5712 5708 5705 5701 5698 5696 5694 5691 5687 5683 5679 5676 5674 5673 5672 5671 5671 5670 5668 5666 5664 5663 5662 5663 5662
5752 5750 5745 5742 5742 5740 5735 5730 5727 5727 5726 5724 5720 5718 5716 5715 5714 5709 5705 5702 5699 5695 5692 5689 5686 5684 5681 5676 5672 5668 5665 5663 5662 5662 5662 5661 5659 5658 5657 5657 5657 5656 5655
5741 5740 5737 5734 5733 5731 5727 5720 5719 5719 5717 5714 5711 5710 5709 5707 5705 5701 5698 5695 5692 5688 5685 5682 5678 5676 5674 5670 5665 5661 5659 5656 5655 5655 5653 5652 5651 5651 5651 5652 5651 5649 5648
5732 5731 5729 5724 5721 5720 5718 5714 5712 5710 5707 5704 5703 5702 5701 5699 5697 5694 5692 5688 5684 5680 5677 5673 5671 5668 5665 5662 5658 5655 5652 5649 5648 5646 5645 5645 5645 5645 5645 5646 5645 5644 5643
5724 5722 5718 5714 5712 5711 5708 5706 5704 5702 5698 5696 5695 5694 5693 5691 5688 5685 5682 5680 5676 5673 5669 5667 5664 5660 5655 5652 5647 5645 5644 5642 5640 5637 5637 5638 5639 5639 5639 5639 5638 5637 5635
5716 5712 5709 5706 5704 5702 5699 5698 5696 5693 5690 5687 5686 5686 5685 5683 5681 5678 5674 5671 5668 5665 5662 5659 5655 5652 5648 5644 5641 5638 5636 5634 5632 5629 5631 5631 5631 5631 5631 5630 5629 5628 5627